Location: Saluda
(35.2377°N, 82.3468°W)
Time: 05:26:42
(UTC+00:00)

Vanguard 2 - Pass Details

Date: 11 October 2022
Orbit: 553 x 2933 km, 32.9° (Epoch: 04 December)

Event Time Altitude Azimuth Distance (km) Brightness Sun altitude
Rises 19:06:04 0° 275° (W) 4,380 11.7 40.2°
Reaches altitude 10° 19:08:32 10° 273° (W) 3,663 11.5 39.9°
Maximum altitude 19:18:37 75° 191° (S) 2,177 10.8 38.6°
Drops below altitude 10° 19:34:44 10° 109° (ESE) 5,571 11.8 36.4°
Sets 19:39:28 0° 108° (ESE) 6,722 12.1 35.7°
